Terminal Aerodrome Forecast
Issued by NWS

Home | Current Version | Previous Version | Text Only | Print | Product List | Glossary On
Versions: 1 2 3 4 5 6 7 8 9 10 11 12 13 14 15 16 17 18 19 20 21 22 23 24 25
000
FTUS41 KOKX 010530
TAFSWF
TAF
KSWF 010530Z 0106/0212 VRB03KT P6SM BKN070
     FM011100 12005KT 6SM -SHRA OVC050
     FM011600 13007KT 4SM -RA OVC035
     FM011800 13008KT 2SM -RA BR OVC012
     FM012100 13007KT 2SM -SHRA BR OVC006
     FM020300 09005KT 1SM -SHRADZ BR OVC003
      AMD NOT SKED=

USA.gov is the U.S. government's official web portal to all federal, state and local government web resources and services.